RYR84KN EGGW-LEMI

Flight info

Callsign RYR84KN
Flight time 2h 17m
Altitude 33000
Route RODNI N27 ICTAM Q63 CPT N859 VAPID UN859 SOPIL DCT BALAN DCT LMG DCT PIMQO DCT AGN DCT ANETO DCT POSSY DCT XIMPE DCT RIMES N860 VLC L34 ALT
Aircraft B738/M-SDE2E3FGHIRWXY/LB1

Departure

Time 2026-04-23 11:26
Airport London Luton Airport (EGGW)

Arrival

Time 2026-04-23 13:43
Airport Region of Murcia International Airport (LEMI)
Time Latitude Longitude Altitude Speed Heading
2026-04-23 11:03 51.88022 -0.37827 535 ft 0 kts 128°
2026-04-23 11:17 51.88025 -0.37833 535 ft 2 kts 130°
2026-04-23 11:17 51.88038 -0.37853 535 ft 3 kts 156°
2026-04-23 11:18 51.88057 -0.37860 535 ft 3 kts 180°
2026-04-23 11:18 51.88069 -0.37860 535 ft 1 kts 184°
2026-04-23 11:20 51.88068 -0.37860 535 ft 1 kts 184°
2026-04-23 11:20 51.88055 -0.37881 535 ft 5 kts 225°
2026-04-23 11:21 51.88017 -0.37935 535 ft 9 kts 218°
2026-04-23 11:21 51.87951 -0.38004 536 ft 13 kts 198°
2026-04-23 11:21 51.87864 -0.38000 536 ft 12 kts 159°
2026-04-23 11:21 51.87807 -0.37932 536 ft 7 kts 123°
2026-04-23 11:22 51.87781 -0.37843 535 ft 11 kts 115°
2026-04-23 11:22 51.87744 -0.37715 535 ft 14 kts 115°
2026-04-23 11:22 51.87699 -0.37558 535 ft 16 kts 117°
2026-04-23 11:22 51.87631 -0.37462 535 ft 14 kts 161°
2026-04-23 11:23 51.87532 -0.37479 535 ft 13 kts 207°
2026-04-23 11:23 51.87496 -0.37590 535 ft 13 kts 254°
2026-04-23 11:23 51.87466 -0.37761 536 ft 18 kts 254°
2026-04-23 11:23 51.87429 -0.37974 536 ft 15 kts 252°
2026-04-23 11:24 51.87351 -0.38079 537 ft 16 kts 205°
2026-04-23 11:24 51.87265 -0.38109 537 ft 8 kts 165°
2026-04-23 11:24 51.87252 -0.38066 537 ft 5 kts 84°
2026-04-23 11:24 51.87254 -0.38051 537 ft 0 kts 74°
2026-04-23 11:25 51.87258 -0.38032 537 ft 6 kts 74°
2026-04-23 11:25 51.87330 -0.37615 535 ft 75 kts 74°
2026-04-23 11:25 51.87530 -0.36459 533 ft 137 kts 74°
2026-04-23 11:25 51.87817 -0.34799 937 ft 157 kts 75°
2026-04-23 11:26 51.88119 -0.33114 1894 ft 156 kts 75°
2026-04-23 11:26 51.88451 -0.31332 2391 ft 178 kts 75°
2026-04-23 11:26 51.88830 -0.29273 2574 ft 202 kts 76°
2026-04-23 11:26 51.89193 -0.26949 2757 ft 224 kts 86°
2026-04-23 11:27 51.88795 -0.24463 3138 ft 238 kts 124°
2026-04-23 11:27 51.87494 -0.22799 3814 ft 248 kts 158°
2026-04-23 11:27 51.85757 -0.22627 3962 ft 259 kts 192°
2026-04-23 11:27 51.84235 -0.24185 4004 ft 269 kts 228°
2026-04-23 11:28 51.83501 -0.26995 4019 ft 280 kts 262°
2026-04-23 11:28 51.83331 -0.30149 3993 ft 282 kts 261°
2026-04-23 11:28 51.83034 -0.33273 4232 ft 280 kts 257°
2026-04-23 11:28 51.82605 -0.36342 4946 ft 280 kts 253°
2026-04-23 11:29 51.82114 -0.39397 5738 ft 280 kts 252°
2026-04-23 11:29 51.81596 -0.42463 6482 ft 283 kts 252°
2026-04-23 11:29 51.81081 -0.45550 7172 ft 287 kts 254°
2026-04-23 11:29 51.80608 -0.48672 7924 ft 288 kts 254°
2026-04-23 11:30 51.80128 -0.51872 8466 ft 296 kts 254°
2026-04-23 11:30 51.79649 -0.55059 9236 ft 295 kts 255°
2026-04-23 11:30 51.79157 -0.58304 9896 ft 298 kts 255°
2026-04-23 11:30 51.78661 -0.61553 10619 ft 301 kts 255°
2026-04-23 11:31 51.78146 -0.64913 10922 ft 318 kts 255°
2026-04-23 11:31 51.77598 -0.68490 11081 ft 338 kts 255°
2026-04-23 11:31 51.77014 -0.72277 11317 ft 354 kts 255°
2026-04-23 11:31 51.76414 -0.76161 11876 ft 360 kts 254°
2026-04-23 11:32 51.75441 -0.79845 12568 ft 359 kts 233°
2026-04-23 11:32 51.73768 -0.82837 13173 ft 361 kts 223°
2026-04-23 11:32 51.71966 -0.85707 13774 ft 366 kts 223°
2026-04-23 11:32 51.70139 -0.88593 14455 ft 369 kts 223°
2026-04-23 11:33 51.68306 -0.91497 15043 ft 373 kts 223°
2026-04-23 11:33 51.66448 -0.94458 15645 ft 377 kts 223°
2026-04-23 11:33 51.64580 -0.97446 16271 ft 380 kts 223°
2026-04-23 11:33 51.62710 -1.00437 16993 ft 380 kts 223°
2026-04-23 11:34 51.60820 -1.03446 17568 ft 385 kts 223°
2026-04-23 11:34 51.58899 -1.06491 18145 ft 390 kts 223°
2026-04-23 11:34 51.56960 -1.09560 18755 ft 393 kts 223°
2026-04-23 11:34 51.55007 -1.12649 19250 ft 397 kts 223°
2026-04-23 11:35 51.53022 -1.15786 19776 ft 401 kts 224°
2026-04-23 11:35 51.50884 -1.18666 20262 ft 403 kts 208°
2026-04-23 11:35 51.48274 -1.20278 20790 ft 403 kts 189°
2026-04-23 11:35 51.45489 -1.20571 21261 ft 403 kts 173°
2026-04-23 11:36 51.42753 -1.19659 21695 ft 404 kts 156°
2026-04-23 11:36 51.40292 -1.17511 22164 ft 403 kts 144°
2026-04-23 11:36 51.37878 -1.15150 22617 ft 408 kts 145°
2026-04-23 11:36 51.35485 -1.12666 23044 ft 412 kts 145°
2026-04-23 11:37 51.33020 -1.10286 23498 ft 417 kts 148°
2026-04-23 11:37 51.30418 -1.08126 23843 ft 425 kts 152°
2026-04-23 11:37 51.27724 -1.06122 24197 ft 430 kts 153°
2026-04-23 11:37 51.24984 -1.04158 24613 ft 432 kts 154°
2026-04-23 11:38 51.22242 -1.02194 25035 ft 434 kts 154°
2026-04-23 11:38 51.19477 -1.00199 25394 ft 437 kts 154°
2026-04-23 11:38 51.16694 -0.98181 25734 ft 441 kts 154°
2026-04-23 11:38 51.13891 -0.96147 26076 ft 444 kts 154°
2026-04-23 11:39 51.11069 -0.94102 26480 ft 446 kts 153°
2026-04-23 11:39 51.08244 -0.92059 26915 ft 447 kts 153°
2026-04-23 11:39 51.05441 -0.90032 27241 ft 450 kts 154°
2026-04-23 11:39 51.02544 -0.87940 27546 ft 454 kts 154°
2026-04-23 11:40 50.99658 -0.85860 27838 ft 457 kts 154°
2026-04-23 11:40 50.96793 -0.83799 28152 ft 460 kts 154°
2026-04-23 11:40 50.93869 -0.81698 28452 ft 463 kts 154°
2026-04-23 11:40 50.90936 -0.79593 28776 ft 466 kts 154°
2026-04-23 11:41 50.87971 -0.77469 29079 ft 468 kts 154°
2026-04-23 11:41 50.85008 -0.75275 29299 ft 472 kts 150°
2026-04-23 11:41 50.82172 -0.72619 29502 ft 475 kts 146°
2026-04-23 11:41 50.79398 -0.69771 29841 ft 476 kts 144°
2026-04-23 11:42 50.76639 -0.66874 30261 ft 475 kts 144°
2026-04-23 11:42 50.73885 -0.63983 30649 ft 475 kts 144°
2026-04-23 11:42 50.71133 -0.61124 31049 ft 472 kts 145°
2026-04-23 11:42 50.68387 -0.58305 31485 ft 469 kts 145°
2026-04-23 11:43 50.65654 -0.55523 31908 ft 467 kts 145°
2026-04-23 11:43 50.62927 -0.52762 32215 ft 467 kts 146°
2026-04-23 11:43 50.60180 -0.49989 32375 ft 471 kts 146°
2026-04-23 11:43 50.57418 -0.47207 32661 ft 471 kts 146°
2026-04-23 11:44 50.54672 -0.44445 33107 ft 467 kts 146°
2026-04-23 11:44 50.51944 -0.41706 33421 ft 466 kts 146°
2026-04-23 11:44 50.49194 -0.38945 33389 ft 470 kts 146°
2026-04-23 11:45 50.43681 -0.33422 33401 ft 468 kts 146°
2026-04-23 11:45 50.38227 -0.27972 33400 ft 465 kts 146°
2026-04-23 11:46 50.32744 -0.22508 33406 ft 469 kts 146°
2026-04-23 11:46 50.27224 -0.17022 33403 ft 471 kts 146°
2026-04-23 11:47 50.21673 -0.11521 33394 ft 473 kts 146°
2026-04-23 11:47 50.17049 -0.06949 33382 ft 474 kts 147°
2026-04-23 11:48 50.11461 -0.01503 33392 ft 474 kts 151°
2026-04-23 11:48 50.05348 0.02045 33389 ft 465 kts 166°
2026-04-23 11:49 49.99070 0.04381 33384 ft 464 kts 166°
2026-04-23 11:49 49.92794 0.06759 33365 ft 465 kts 166°
2026-04-23 11:50 49.86507 0.09206 33366 ft 467 kts 166°
2026-04-23 11:50 49.80194 0.11674 33361 ft 469 kts 166°
2026-04-23 11:51 49.73859 0.14142 33345 ft 471 kts 166°
2026-04-23 11:51 49.67499 0.16612 33353 ft 472 kts 166°
2026-04-23 11:52 49.61129 0.19176 33348 ft 474 kts 166°
2026-04-23 11:52 49.54753 0.21778 33344 ft 475 kts 166°
2026-04-23 11:53 49.48362 0.24367 33336 ft 475 kts 166°
2026-04-23 11:53 49.42001 0.26927 33322 ft 475 kts 166°
2026-04-23 11:54 49.35604 0.29495 33322 ft 475 kts 166°
2026-04-23 11:54 49.29207 0.32068 33307 ft 475 kts 166°
2026-04-23 11:55 49.22841 0.34740 33324 ft 474 kts 165°
2026-04-23 11:55 49.16491 0.37431 33321 ft 473 kts 165°
2026-04-23 11:56 49.10143 0.40099 33326 ft 473 kts 166°
2026-04-23 11:56 49.03802 0.42748 33308 ft 472 kts 166°
2026-04-23 11:57 48.97461 0.45388 33328 ft 473 kts 166°
2026-04-23 11:57 48.91117 0.48024 33324 ft 473 kts 166°
2026-04-23 11:58 48.84766 0.50656 33308 ft 473 kts 166°
2026-04-23 11:58 48.78424 0.53276 33306 ft 472 kts 166°
2026-04-23 11:59 48.72065 0.55785 33307 ft 472 kts 167°
2026-04-23 11:59 48.65702 0.58247 33309 ft 472 kts 167°
2026-04-23 12:00 48.59340 0.60721 33293 ft 472 kts 167°
2026-04-23 12:00 48.52983 0.63195 33303 ft 472 kts 167°
2026-04-23 12:01 48.46623 0.65735 33296 ft 473 kts 166°
2026-04-23 12:01 48.40270 0.68337 33286 ft 474 kts 166°
2026-04-23 12:02 48.33907 0.70924 33289 ft 474 kts 166°
2026-04-23 12:02 48.27528 0.73501 33284 ft 475 kts 166°
2026-04-23 12:03 48.21180 0.76039 33263 ft 476 kts 167°
2026-04-23 12:03 48.14769 0.78556 33274 ft 477 kts 167°
2026-04-23 12:04 48.08351 0.81071 33277 ft 477 kts 167°
2026-04-23 12:04 48.01923 0.83589 33265 ft 478 kts 167°
2026-04-23 12:05 47.95484 0.86107 33278 ft 478 kts 167°
2026-04-23 12:05 47.89040 0.88621 33262 ft 479 kts 167°
2026-04-23 12:06 47.82598 0.91127 33266 ft 478 kts 167°
2026-04-23 12:06 47.72942 0.94862 33250 ft 477 kts 167°
2026-04-23 12:07 47.66513 0.97341 33255 ft 477 kts 167°
2026-04-23 12:07 47.60089 0.99813 33247 ft 477 kts 167°
2026-04-23 12:08 47.53663 1.02281 33243 ft 477 kts 167°
2026-04-23 12:08 47.47242 1.04740 33250 ft 477 kts 167°
2026-04-23 12:09 47.40752 1.06514 33235 ft 472 kts 182°
2026-04-23 12:09 47.34214 1.06334 33223 ft 470 kts 186°
2026-04-23 12:10 47.27668 1.06077 33235 ft 471 kts 185°
2026-04-23 12:10 47.21111 1.05902 33228 ft 472 kts 185°
2026-04-23 12:11 47.14544 1.05762 33228 ft 472 kts 185°
2026-04-23 12:11 47.07979 1.05620 33221 ft 472 kts 185°
2026-04-23 12:12 47.01412 1.05469 33216 ft 472 kts 185°
2026-04-23 12:12 46.94858 1.05202 33211 ft 471 kts 186°
2026-04-23 12:13 46.88322 1.04893 33211 ft 469 kts 186°
2026-04-23 12:13 46.81802 1.04599 33211 ft 468 kts 186°
2026-04-23 12:14 46.75339 1.04319 33212 ft 467 kts 186°
2026-04-23 12:14 46.68848 1.04040 33204 ft 466 kts 186°
2026-04-23 12:15 46.62360 1.03761 33200 ft 466 kts 186°
2026-04-23 12:15 46.55884 1.03484 33182 ft 465 kts 186°
2026-04-23 12:16 46.49414 1.03230 33196 ft 465 kts 185°
2026-04-23 12:16 46.42943 1.03160 33191 ft 465 kts 184°
2026-04-23 12:17 46.36476 1.03132 33191 ft 465 kts 184°
2026-04-23 12:17 46.30012 1.03083 33184 ft 465 kts 184°
2026-04-23 12:18 46.23544 1.03020 33177 ft 465 kts 184°
2026-04-23 12:18 46.17081 1.02954 33180 ft 465 kts 184°
2026-04-23 12:19 46.10618 1.02888 33171 ft 465 kts 184°
2026-04-23 12:19 46.04154 1.02824 33184 ft 464 kts 184°
2026-04-23 12:20 45.97739 1.02760 33183 ft 464 kts 184°
2026-04-23 12:20 45.91284 1.02696 33187 ft 464 kts 184°
2026-04-23 12:21 45.84833 1.02632 33185 ft 463 kts 184°
2026-04-23 12:21 45.78393 1.03197 33189 ft 467 kts 173°
2026-04-23 12:22 45.72012 1.04914 33181 ft 466 kts 172°
2026-04-23 12:22 45.65643 1.06661 33166 ft 466 kts 172°
2026-04-23 12:23 45.59276 1.08324 33168 ft 465 kts 173°
2026-04-23 12:23 45.52911 1.09945 33169 ft 464 kts 173°
2026-04-23 12:24 45.46562 1.11555 33172 ft 463 kts 173°
2026-04-23 12:24 45.40214 1.13164 33176 ft 463 kts 173°
2026-04-23 12:25 45.33875 1.14768 33174 ft 463 kts 173°
2026-04-23 12:25 45.27536 1.16370 33172 ft 463 kts 173°
2026-04-23 12:26 45.21185 1.17970 33180 ft 464 kts 173°
2026-04-23 12:26 45.14843 1.18909 33176 ft 459 kts 186°
2026-04-23 12:27 45.08592 1.17580 33179 ft 454 kts 195°
2026-04-23 12:27 45.02381 1.15890 33176 ft 455 kts 195°
2026-04-23 12:28 44.96148 1.14241 33138 ft 456 kts 194°
2026-04-23 12:28 44.89914 1.12638 33145 ft 455 kts 194°
2026-04-23 12:29 44.83683 1.11053 33147 ft 454 kts 194°
2026-04-23 12:29 44.77471 1.09477 33148 ft 453 kts 194°
2026-04-23 12:30 44.71278 1.07907 33146 ft 452 kts 194°
2026-04-23 12:30 44.65097 1.06342 33138 ft 451 kts 194°
2026-04-23 12:31 44.58932 1.04785 33140 ft 449 kts 194°
2026-04-23 12:31 44.52779 1.03234 33137 ft 449 kts 194°
2026-04-23 12:32 44.46642 1.01691 33138 ft 448 kts 194°
2026-04-23 12:32 44.40496 1.00148 33127 ft 448 kts 194°
2026-04-23 12:33 44.34363 0.98612 33137 ft 448 kts 194°
2026-04-23 12:33 44.28228 0.97078 33131 ft 448 kts 194°
2026-04-23 12:34 44.22089 0.95547 33120 ft 448 kts 194°
2026-04-23 12:34 44.15991 0.94030 33126 ft 448 kts 194°
2026-04-23 12:35 44.09848 0.92504 33132 ft 448 kts 194°
2026-04-23 12:35 44.03703 0.90982 33129 ft 449 kts 194°
2026-04-23 12:36 43.97559 0.89462 33119 ft 449 kts 194°
2026-04-23 12:36 43.91410 0.87944 33124 ft 449 kts 194°
2026-04-23 12:37 43.85261 0.86392 33115 ft 449 kts 195°
2026-04-23 12:37 43.80125 0.85009 33118 ft 449 kts 195°
2026-04-23 12:38 43.73998 0.83345 33113 ft 449 kts 195°
2026-04-23 12:38 43.67904 0.81705 33110 ft 449 kts 195°
2026-04-23 12:39 43.61725 0.80054 33104 ft 449 kts 195°
2026-04-23 12:39 43.55634 0.78433 33103 ft 449 kts 195°
2026-04-23 12:40 43.49503 0.76805 33110 ft 448 kts 195°
2026-04-23 12:40 43.43379 0.75182 33098 ft 448 kts 195°
2026-04-23 12:41 43.37272 0.73567 33091 ft 446 kts 195°
2026-04-23 12:41 43.31184 0.71960 33093 ft 445 kts 195°
2026-04-23 12:42 43.25118 0.70361 33087 ft 443 kts 195°
2026-04-23 12:42 43.19066 0.68770 33083 ft 442 kts 195°
2026-04-23 12:43 43.13025 0.67184 33093 ft 442 kts 195°
2026-04-23 12:43 43.06995 0.65605 33101 ft 441 kts 195°
2026-04-23 12:44 43.00964 0.64028 33092 ft 441 kts 195°
2026-04-23 12:44 42.94938 0.62455 33108 ft 441 kts 195°
2026-04-23 12:45 42.88905 0.60885 33117 ft 442 kts 195°
2026-04-23 12:45 42.82869 0.59315 33164 ft 442 kts 195°
2026-04-23 12:46 42.76792 0.57741 33133 ft 446 kts 195°
2026-04-23 12:46 42.70690 0.56142 33127 ft 446 kts 197°
2026-04-23 12:47 42.64976 0.53207 33161 ft 437 kts 210°
2026-04-23 12:47 42.59504 0.49611 33148 ft 436 kts 210°
2026-04-23 12:48 42.54037 0.46054 33152 ft 436 kts 210°
2026-04-23 12:48 42.48551 0.42539 33166 ft 436 kts 210°
2026-04-23 12:49 42.43068 0.39050 33174 ft 435 kts 210°
2026-04-23 12:49 42.37587 0.35571 33164 ft 435 kts 209°
2026-04-23 12:50 42.32104 0.32098 33165 ft 435 kts 209°
2026-04-23 12:50 42.26657 0.28651 33157 ft 435 kts 209°
2026-04-23 12:51 42.21170 0.25185 33159 ft 436 kts 209°
2026-04-23 12:51 42.15681 0.21725 33147 ft 435 kts 209°
2026-04-23 12:52 42.10196 0.18274 33146 ft 435 kts 209°
2026-04-23 12:52 42.04524 0.15404 33141 ft 441 kts 195°
2026-04-23 12:53 41.98409 0.14399 33135 ft 443 kts 189°
2026-04-23 12:53 41.92273 0.13571 33147 ft 443 kts 189°
2026-04-23 12:54 41.86152 0.12701 33150 ft 442 kts 190°
2026-04-23 12:54 41.80034 0.11795 33151 ft 442 kts 190°
2026-04-23 12:55 41.73926 0.10880 33151 ft 441 kts 190°
2026-04-23 12:55 41.67822 0.09968 33148 ft 441 kts 190°
2026-04-23 12:56 41.61719 0.09059 33159 ft 441 kts 190°
2026-04-23 12:56 41.55620 0.08153 33151 ft 441 kts 190°
2026-04-23 12:57 41.49522 0.07249 33145 ft 441 kts 190°
2026-04-23 12:57 41.43429 0.06347 33149 ft 441 kts 190°
2026-04-23 12:58 41.37332 0.05447 33151 ft 441 kts 190°
2026-04-23 12:58 41.31236 0.04548 33138 ft 440 kts 190°
2026-04-23 12:59 41.25146 0.03652 33144 ft 440 kts 190°
2026-04-23 12:59 41.19096 0.02763 33136 ft 441 kts 190°
2026-04-23 13:00 41.13006 0.01870 33137 ft 440 kts 189°
2026-04-23 13:00 41.06919 0.00980 33149 ft 440 kts 189°
2026-04-23 13:01 41.00830 0.00096 33142 ft 440 kts 189°
2026-04-23 13:01 40.94739 -0.00787 33138 ft 440 kts 189°
2026-04-23 13:02 40.88664 -0.01667 33125 ft 438 kts 189°
2026-04-23 13:02 40.82609 -0.02542 33133 ft 437 kts 189°
2026-04-23 13:03 40.76575 -0.03412 33132 ft 435 kts 189°
2026-04-23 13:03 40.70562 -0.04279 33150 ft 434 kts 189°
2026-04-23 13:04 40.64563 -0.05142 33162 ft 433 kts 189°
2026-04-23 13:04 40.58576 -0.06001 33144 ft 433 kts 189°
2026-04-23 13:05 40.52693 -0.07443 33143 ft 428 kts 200°
2026-04-23 13:05 40.47045 -0.09768 33121 ft 428 kts 201°
2026-04-23 13:06 40.38490 -0.13235 33096 ft 430 kts 200°
2026-04-23 13:07 40.32761 -0.15489 33085 ft 430 kts 200°
2026-04-23 13:07 40.27025 -0.17740 33080 ft 430 kts 200°
2026-04-23 13:08 40.21293 -0.19997 33096 ft 430 kts 200°
2026-04-23 13:08 40.15566 -0.22263 33119 ft 430 kts 200°
2026-04-23 13:09 40.09835 -0.24527 33133 ft 430 kts 199°
2026-04-23 13:09 40.04098 -0.26787 33178 ft 431 kts 199°
2026-04-23 13:10 39.98364 -0.29036 33181 ft 430 kts 199°
2026-04-23 13:10 39.92648 -0.31234 33154 ft 419 kts 199°
2026-04-23 13:10 39.89896 -0.32287 33128 ft 406 kts 199°
2026-04-23 13:11 39.87209 -0.33324 32838 ft 399 kts 199°
2026-04-23 13:11 39.84572 -0.34348 32581 ft 393 kts 200°
2026-04-23 13:11 39.81959 -0.35367 32195 ft 391 kts 200°
2026-04-23 13:11 39.79363 -0.36381 31843 ft 388 kts 201°
2026-04-23 13:12 39.76786 -0.37388 31493 ft 386 kts 199°
2026-04-23 13:12 39.74222 -0.38386 31146 ft 383 kts 200°
2026-04-23 13:12 39.71673 -0.39373 30803 ft 381 kts 200°
2026-04-23 13:12 39.69137 -0.40357 30460 ft 380 kts 200°
2026-04-23 13:13 39.66613 -0.41336 30103 ft 378 kts 200°
2026-04-23 13:13 39.64098 -0.42310 29685 ft 376 kts 200°
2026-04-23 13:13 39.61598 -0.43277 29327 ft 373 kts 200°
2026-04-23 13:13 39.59152 -0.44224 28956 ft 370 kts 199°
2026-04-23 13:14 39.56692 -0.45176 28599 ft 367 kts 199°
2026-04-23 13:14 39.54252 -0.46117 28249 ft 365 kts 200°
2026-04-23 13:14 39.51827 -0.47053 27900 ft 362 kts 200°
2026-04-23 13:14 39.49418 -0.47970 27551 ft 360 kts 198°
2026-04-23 13:15 39.46951 -0.48521 27199 ft 361 kts 187°
2026-04-23 13:15 39.44453 -0.48722 26875 ft 358 kts 186°
2026-04-23 13:15 39.41968 -0.48878 26535 ft 357 kts 186°
2026-04-23 13:15 39.39496 -0.49027 26194 ft 355 kts 186°
2026-04-23 13:16 39.37032 -0.49180 25859 ft 353 kts 186°
2026-04-23 13:16 39.34583 -0.49340 25518 ft 352 kts 185°
2026-04-23 13:16 39.32146 -0.49506 25184 ft 350 kts 186°
2026-04-23 13:16 39.29715 -0.49675 24844 ft 349 kts 185°
2026-04-23 13:17 39.27298 -0.49845 24511 ft 348 kts 186°
2026-04-23 13:17 39.24881 -0.50018 24167 ft 347 kts 186°
2026-04-23 13:17 39.22471 -0.50191 23824 ft 347 kts 186°
2026-04-23 13:17 39.20064 -0.50365 23445 ft 346 kts 186°
2026-04-23 13:18 39.17665 -0.50537 23076 ft 344 kts 186°
2026-04-23 13:18 39.15281 -0.50708 22728 ft 342 kts 186°
2026-04-23 13:18 39.12909 -0.50878 22379 ft 340 kts 186°
2026-04-23 13:18 39.10549 -0.51047 22023 ft 338 kts 186°
2026-04-23 13:19 39.08206 -0.51214 21683 ft 336 kts 186°
2026-04-23 13:19 39.05876 -0.51382 21353 ft 334 kts 186°
2026-04-23 13:19 39.03561 -0.51549 21016 ft 333 kts 187°
2026-04-23 13:19 39.01285 -0.51712 20683 ft 331 kts 186°
2026-04-23 13:20 38.98991 -0.51876 20356 ft 330 kts 186°
2026-04-23 13:20 38.96675 -0.52041 20021 ft 328 kts 186°
2026-04-23 13:20 38.94398 -0.52206 19697 ft 327 kts 186°
2026-04-23 13:20 38.92129 -0.52370 19359 ft 326 kts 186°
2026-04-23 13:21 38.89866 -0.52532 19031 ft 325 kts 186°
2026-04-23 13:21 38.87613 -0.52693 18708 ft 324 kts 186°
2026-04-23 13:21 38.85362 -0.52853 18377 ft 324 kts 186°
2026-04-23 13:21 38.83118 -0.53013 18019 ft 322 kts 186°
2026-04-23 13:22 38.80881 -0.53173 17670 ft 321 kts 186°
2026-04-23 13:22 38.78656 -0.53331 17341 ft 320 kts 186°
2026-04-23 13:22 38.76438 -0.53489 17019 ft 318 kts 186°
2026-04-23 13:22 38.74231 -0.53646 16707 ft 317 kts 186°
2026-04-23 13:23 38.72036 -0.53802 16386 ft 315 kts 186°
2026-04-23 13:23 38.69850 -0.53958 16072 ft 314 kts 186°
2026-04-23 13:23 38.67674 -0.54112 15762 ft 312 kts 186°
2026-04-23 13:23 38.65506 -0.54265 15489 ft 311 kts 187°
2026-04-23 13:24 38.63352 -0.54419 15179 ft 310 kts 186°
2026-04-23 13:24 38.61206 -0.54572 14870 ft 309 kts 186°
2026-04-23 13:24 38.59785 -0.54670 14664 ft 308 kts 187°
2026-04-23 13:24 38.56961 -0.54871 14260 ft 307 kts 186°
2026-04-23 13:25 38.54834 -0.55021 13942 ft 306 kts 187°
2026-04-23 13:25 38.52714 -0.55173 13587 ft 306 kts 185°
2026-04-23 13:25 38.50590 -0.55323 13244 ft 305 kts 188°
2026-04-23 13:25 38.48479 -0.55472 12929 ft 303 kts 186°
2026-04-23 13:26 38.46380 -0.55619 12603 ft 302 kts 186°
2026-04-23 13:26 38.44965 -0.55718 12393 ft 301 kts 188°
2026-04-23 13:26 38.42879 -0.55867 12070 ft 300 kts 187°
2026-04-23 13:26 38.40806 -0.56012 11765 ft 298 kts 187°
2026-04-23 13:27 38.38742 -0.56158 11448 ft 296 kts 185°
2026-04-23 13:27 38.36687 -0.56303 11156 ft 295 kts 188°
2026-04-23 13:27 38.34669 -0.56445 10866 ft 294 kts 186°
2026-04-23 13:27 38.32636 -0.56589 10571 ft 292 kts 185°
2026-04-23 13:28 38.30609 -0.56731 10283 ft 291 kts 186°
2026-04-23 13:28 38.28611 -0.56886 10110 ft 283 kts 191°
2026-04-23 13:28 38.26815 -0.57688 9879 ft 271 kts 219°
2026-04-23 13:28 38.25472 -0.59300 9664 ft 264 kts 232°
2026-04-23 13:29 38.24405 -0.61186 9403 ft 261 kts 237°
2026-04-23 13:29 38.23388 -0.63104 9125 ft 261 kts 236°
2026-04-23 13:29 38.22370 -0.64999 8864 ft 259 kts 233°
2026-04-23 13:29 38.20995 -0.66428 8580 ft 259 kts 205°
2026-04-23 13:30 38.19302 -0.67150 8352 ft 257 kts 199°
2026-04-23 13:30 38.17589 -0.67767 8093 ft 256 kts 196°
2026-04-23 13:30 38.15875 -0.68378 7815 ft 255 kts 196°
2026-04-23 13:30 38.14250 -0.69231 7516 ft 254 kts 216°
2026-04-23 13:31 38.12953 -0.70746 7289 ft 252 kts 224°
2026-04-23 13:31 38.11726 -0.72329 7024 ft 251 kts 224°
2026-04-23 13:31 38.10490 -0.73895 6780 ft 250 kts 221°
2026-04-23 13:31 38.09214 -0.75387 6537 ft 249 kts 220°
2026-04-23 13:32 38.07960 -0.76898 6264 ft 249 kts 221°
2026-04-23 13:32 38.06729 -0.78441 5990 ft 249 kts 223°
2026-04-23 13:32 38.05506 -0.79999 5687 ft 250 kts 223°
2026-04-23 13:32 38.04278 -0.81575 5379 ft 253 kts 224°
2026-04-23 13:33 38.03040 -0.83170 5105 ft 253 kts 222°
2026-04-23 13:33 38.01791 -0.84779 4794 ft 260 kts 222°
2026-04-23 13:33 38.00518 -0.86416 4644 ft 262 kts 223°
2026-04-23 13:33 37.99241 -0.88061 4515 ft 259 kts 223°
2026-04-23 13:34 37.97993 -0.89669 4377 ft 252 kts 222°
2026-04-23 13:34 37.96785 -0.91230 4275 ft 244 kts 223°
2026-04-23 13:34 37.95605 -0.92751 4153 ft 240 kts 222°
2026-04-23 13:34 37.94420 -0.94271 3971 ft 244 kts 223°
2026-04-23 13:35 37.93252 -0.95780 3784 ft 236 kts 221°
2026-04-23 13:35 37.92132 -0.97228 3630 ft 229 kts 223°
2026-04-23 13:35 37.91012 -0.98668 3311 ft 231 kts 221°
2026-04-23 13:35 37.89899 -1.00102 3039 ft 226 kts 221°
2026-04-23 13:36 37.88810 -1.01514 2737 ft 224 kts 220°
2026-04-23 13:36 37.87720 -1.02913 2460 ft 222 kts 222°
2026-04-23 13:36 37.86640 -1.04306 2163 ft 221 kts 223°
2026-04-23 13:36 37.85574 -1.05685 1873 ft 217 kts 221°
2026-04-23 13:37 37.84537 -1.07024 1589 ft 208 kts 221°
2026-04-23 13:37 37.83514 -1.08129 1632 ft 189 kts 204°
2026-04-23 13:37 37.82320 -1.08754 1509 ft 181 kts 184°
2026-04-23 13:37 37.81092 -1.08907 1457 ft 180 kts 175°
2026-04-23 13:38 37.79843 -1.09042 1497 ft 177 kts 177°
2026-04-23 13:38 37.78627 -1.09240 1532 ft 176 kts 178°
2026-04-23 13:38 37.77398 -1.09430 1625 ft 180 kts 177°
2026-04-23 13:38 37.76196 -1.09744 1704 ft 186 kts 199°
2026-04-23 13:39 37.75170 -1.10876 1824 ft 199 kts 227°
2026-04-23 13:39 37.74278 -1.12163 1833 ft 195 kts 219°
2026-04-23 13:39 37.73304 -1.13392 1827 ft 201 kts 221°
2026-04-23 13:39 37.72413 -1.14738 1789 ft 203 kts 244°
2026-04-23 13:40 37.72245 -1.16436 1748 ft 186 kts 284°
2026-04-23 13:40 37.72789 -1.17790 1738 ft 166 kts 320°
2026-04-23 13:40 37.73709 -1.18580 1775 ft 157 kts 348°
2026-04-23 13:40 37.74754 -1.18744 1673 ft 149 kts 17°
2026-04-23 13:41 37.75709 -1.18341 1617 ft 142 kts 38°
2026-04-23 13:41 37.76460 -1.17537 1543 ft 143 kts 50°
2026-04-23 13:41 37.77139 -1.16611 1395 ft 149 kts 53°
2026-04-23 13:41 37.77868 -1.15664 1196 ft 150 kts 50°
2026-04-23 13:42 37.78596 -1.14710 943 ft 150 kts 50°
2026-04-23 13:42 37.79305 -1.13791 697 ft 143 kts 51°
2026-04-23 13:42 37.79961 -1.12946 639 ft 120 kts 49°
2026-04-23 13:42 37.80433 -1.12326 639 ft 76 kts 46°
2026-04-23 13:43 37.80710 -1.11968 638 ft 44 kts 45°
2026-04-23 13:43 37.80913 -1.11709 640 ft 38 kts 47°
2026-04-23 13:43 37.81084 -1.11486 639 ft 33 kts 44°
2026-04-23 13:43 37.81211 -1.11324 639 ft 14 kts 43°
2026-04-23 13:44 37.81281 -1.11322 641 ft 10 kts 321°
2026-04-23 13:44 37.81332 -1.11383 640 ft 10 kts 315°
2026-04-23 13:44 37.81344 -1.11462 640 ft 10 kts 240°
2026-04-23 13:44 37.81288 -1.11538 640 ft 14 kts 225°
2026-04-23 13:45 37.81203 -1.11647 640 ft 20 kts 225°
2026-04-23 13:45 37.81090 -1.11792 640 ft 26 kts 225°
2026-04-23 13:45 37.80963 -1.11955 640 ft 27 kts 225°
2026-04-23 13:45 37.80844 -1.12107 640 ft 23 kts 226°
2026-04-23 13:46 37.80723 -1.12261 640 ft 20 kts 225°
2026-04-23 13:46 37.80631 -1.12382 640 ft 20 kts 225°
2026-04-23 13:46 37.80521 -1.12522 640 ft 25 kts 225°
2026-04-23 13:46 37.80421 -1.12650 640 ft 10 kts 226°
2026-04-23 13:47 37.80414 -1.12735 641 ft 11 kts 304°
2026-04-23 13:47 37.80461 -1.12808 640 ft 9 kts 290°
2026-04-23 13:47 37.80436 -1.12886 640 ft 12 kts 224°
2026-04-23 13:47 37.80388 -1.12956 640 ft 7 kts 262°
2026-04-23 13:48 37.80417 -1.13011 640 ft 6 kts 315°
2026-04-23 13:48 37.80426 -1.13023 640 ft 0 kts 316°